This is the latest recevied weather packets stored in our database for station/object K5GHS-1. If no packets are shown the sender has not sent any weather packets the latest 10 day(s).
| Time | Temp. | Humidity | Pressure | Rain* | Wind** | Luminosity | Snow |
|---|---|---|---|---|---|---|---|
| 1777217425 | 26.11° C | 79% | 1007 hPa | 0 mm | - | 332 W/m² | - |
| 1777217121 | 25.56° C | 80% | 1006.8 hPa | 0 mm | - | 421 W/m² | - |
| 1777216818 | 25.56° C | 80% | 1007 hPa | 0 mm | - | 317 W/m² | - |
| 1777216515 | 25.56° C | 81% | 1007.1 hPa | 0 mm | - | 188 W/m² | - |
| 1777216210 | 25.56° C | 81% | 1007.2 hPa | 0 mm | - | 317 W/m² | - |
| 1777215903 | 25.56° C | 81% | 1007.3 hPa | 0 mm | - | 418 W/m² | - |
| 1777215599 | 25.56° C | 81% | 1007.3 hPa | 0 mm | - | 308 W/m² | - |
| 1777215295 | 25.56° C | 81% | 1007.3 hPa | 0 mm | - | 377 W/m² | - |
| 1777214991 | 25.56° C | 81% | 1007 hPa | 0 mm | - | 374 W/m² | - |
| 1777214685 | 25.56° C | 82% | 1007 hPa | 0 mm | - | 331 W/m² | - |
| 1777214379 | 25.56° C | 82% | 1007 hPa | 0 mm | - | 306 W/m² | - |
| 1777214079 | 25.56° C | 82% | 1007.2 hPa | 0 mm | - | 296 W/m² | - |
| 1777213774 | 25.56° C | 82% | 1006.9 hPa | 0 mm | - | 277 W/m² | - |
| 1777213470 | 25° C | 83% | 1007 hPa | 0 mm | - | 262 W/m² | - |
| 1777213167 | 25° C | 83% | 1007.1 hPa | 0 mm | - | 239 W/m² | - |
| 1777212863 | 25° C | 83% | 1007.1 hPa | 0 mm | - | 233 W/m² | - |
| 1777212561 | 25° C | 84% | 1007.3 hPa | 0 mm | - | 216 W/m² | - |
| 1777212259 | 24.44° C | 85% | 1007.2 hPa | 0 mm | - | 198 W/m² | - |
| 1777211955 | 24.44° C | 86% | 1007.2 hPa | 0 mm | - | 185 W/m² | - |
| 1777211655 | 23.89° C | 87% | 1007.4 hPa | 0 mm | - | 186 W/m² | - |
| 1777211351 | 23.89° C | 88% | 1007.2 hPa | 0 mm | - | 144 W/m² | - |
| 1777211046 | 23.33° C | 89% | 1007.3 hPa | 0 mm | - | 144 W/m² | - |
| 1777210743 | 23.33° C | 91% | 1007.2 hPa | 0 mm | - | 111 W/m² | - |
| 1777210437 | 22.78° C | 91% | 1007.3 hPa | 0 mm | - | 82 W/m² | - |
| 1777210134 | 22.78° C | 91% | 1007.7 hPa | 0 mm | - | 49 W/m² | - |
* Rain latest hour (hover to see other rain measurements)
** Current wind speed in m/s (hover to see current wind gust speed)